Location: Chena
(64.8152°N, 147.9227°W)
Time: 22:41:36
(UTC+00:00)

Vanguard 2 - Pass Details

Date: 11 March 2021
Orbit: 552 x 2938 km, 32.9° (Epoch: 11 April)

Event Time Altitude Azimuth Distance (km) Brightness Sun altitude
Rises 12:12:51 0° 205° (SSW) 5,081 - -24.4°
Reaches altitude 10° 12:19:32 10° 177° (S) 4,685 - -23.9°
Exits shadow 12:20:57 11° 171° (S) 4,709 11.1 -23.8°
Maximum altitude 12:23:21 12° 160° (SSE) 4,830 11.3 -23.7°
Drops below altitude 10° 12:27:32 10° 144° (SE) 5,243 11.6 -23.4°
Sets 12:36:37 0° 119° (ESE) 6,660 12.5 -22.7°
